Simultaneous Nadir Overpasses (SNOs) Predictions

Prediction of SNOs between LANDSAT-8 and METOP-B Satellite Orbit:

Table of predicted SNOs for the next 14.0 days since TLE Epoch: 8/10/2024
Index Date (LANDSAT-8) Time (LANDSAT-8) Lat,Lon (LANDSAT-8) SZA (LANDSAT-8 ) Date (METOP-B) Time (METOP-B) Lat,Lon (METOP-B) SZA (METOP-B ) Distance(km) Time Diff (sec)
1 08/10/2024 20:23:21 -81.37, 98.44 111.48 08/10/2024 20:22:21 -81.37, 98.24 111.53 3.33 60
2 08/10/2024 21:12:47 81.38, -93.75 68.56 08/10/2024 21:13:00 81.38, -93.73 68.57 0.60 13
3 08/13/2024 15:57:39 -81.38, 165.01 110.60 08/13/2024 15:56:47 -81.38, 164.92 110.63 1.55 52
4 08/13/2024 16:47:05 81.38, -27.21 69.43 08/13/2024 16:47:26 81.39, -27.07 69.46 2.44 21
5 08/16/2024 11:31:56 -81.38,-128.52 109.71 08/16/2024 11:31:13 -81.38,-128.56 109.73 0.71 43
6 08/16/2024 12:21:22 81.38, 39.21 70.32 08/16/2024 12:21:53 81.38, 39.03 70.32 2.99 31
7 08/19/2024 07:06:11 -81.37, -62.16 108.79 08/19/2024 07:05:38 -81.38, -62.21 108.81 0.96 33
8 08/19/2024 07:55:36 81.39, 105.91 71.28 08/19/2024 07:56:17 81.39, 105.76 71.28 2.68 41
9 08/22/2024 02:40:25 -81.38, 4.46 107.82 08/22/2024 02:40:03 -81.38, 4.37 107.84 1.60 22



Historial Predications of SNOs between LANDSAT-8 and METOP-B
